#timestamp,LO_Frequency,Hit,StdDev 
1582624815.7,286046999.3,N
1582624835.6,286046998.7,N
1582624855.4,286047001.1,N
1582624875.2,286047001.7,N
1582624895.1,286047003.7,N
1582624896.0,286047003.7,N
1582624915.8,286047003.1,N
1582624935.6,286047005.1,N
1582624955.5,286047004.2,N
1582624975.3,286047000.2,N
1582624995.2,286046998.7,N
1582625015.9,286046997.4,N
1582625035.7,286046996.1,N
1582625055.6,286046994.1,N
1582625075.4,286046996.3,N
1582625095.2,286046997.6,N
1582625115.1,286047001.0,N
1582625116.0,286047001.0,N
1582625135.8,286047002.5,N
1582625155.7,286047001.3,N
1582625175.5,286047001.4,N
1582625195.3,286047007.6,N
1582625215.2,286047004.7,N
1582625235.0,286047005.9,N
1582625235.9,286047005.9,N
1582625255.8,286047001.9,N
1582625275.6,286047000.6,N
1582625295.4,286046996.8,N
1582625315.3,286046995.4,N
1582625335.1,286046996.0,N
1582625355.8,286046996.7,N
1582625375.7,286046998.5,N
1582625395.5,286047002.2,N
1582625415.4,286047002.1,N
1582625435.2,286047003.9,N
1582625455.0,286047003.7,N
1582625455.9,286047003.7,N
1582625475.8,286047004.0,N
1582625495.6,286047000.3,N
1582625515.5,286046998.4,N
1582625535.3,286046996.8,N
1582625555.1,286046996.9,N
1582625575.9,286046995.9,N
1582625595.7,286046995.0,N
1582625615.5,286046996.5,N
1582625635.4,286046997.2,N
1582625655.2,286046999.0,N
1582625675.1,286047001.7,N
1582625676.0,286047001.7,N
1582625695.8,286047003.2,N
1582625715.6,286047004.2,N
1582625735.5,286046999.8,N
1582625755.3,286046999.3,N
1582625775.2,286046997.4,N
1582625795.9,286046996.2,N
1582625815.7,286046995.8,N
1582625835.6,286046995.5,N
1582625855.4,286046996.1,N
1582625875.2,286046996.1,N
1582625895.1,286046995.4,N
1582625896.0,286046995.4,N
1582625915.8,286046997.3,N
1582625935.7,286046999.3,N
1582625955.5,286046999.9,N
1582625975.3,286046998.4,N
1582625995.2,286046997.8,N
1582626015.0,286046993.3,N
1582626015.9,286046993.3,N
1582626035.8,286046994.1,N
1582626055.6,286046994.7,N
1582626075.4,286046993.3,N
1582626095.3,286046995.7,N
1582626115.1,286046996.1,N
1582626135.8,286046995.5,N
1582626155.7,286046995.8,N
1582626175.5,286046997.6,N
1582626195.4,286046998.7,N
1582626215.2,286047001.2,N
1582626235.0,286047001.0,N
1582626235.9,286047001.0,N
1582626255.8,286047000.9,N
1582626275.6,286046999.5,N
1582626295.4,286046999.2,N
1582626315.3,286046997.0,N
1582626335.1,286046995.4,N
1582626355.9,286046995.9,N
1582626375.7,286046994.9,N
1582626395.5,286046996.0,N
1582626415.4,286046996.1,N
1582626435.2,286046999.1,N
1582626455.1,286047001.0,N
1582626456.0,286047001.0,N
1582626475.8,286047000.2,N
1582626495.6,286047001.3,N
1582626515.5,286047004.2,N
1582626535.3,286047004.0,N
1582626555.1,286047011.9,Y
1582626575.9,286046998.1,P
1582626595.7,286046999.3,P
1582626615.6,286046999.6,N
1582626635.4,286046997.8,Y
1582626655.2,286046997.7,P
1582626675.1,286046997.9,P
1582626676.0,286046997.9,P
1582626695.8,286046997.5,Y
1582626715.7,286046999.7,P
1582626735.5,286047004.6,P
1582626785.4,286047012.3,E
1582626795.3,286047006.9,N
1582626815.1,286047000.8,P
1582626835.9,286046996.5,N
1582626855.7,286046996.0,N
1582626875.5,286046993.9,N
1582626895.4,286046991.0,N
1582626915.2,286046989.0,N
1582626935.1,286046987.1,N
1582626936.0,286046987.1,N
1582626955.8,286046989.3,N
1582626975.6,286046991.0,N
1582626995.5,286046990.9,N
1582627015.3,286046991.0,N
1582627035.2,286046994.8,N
1582627055.9,286046995.1,N
1582627075.7,286046996.9,N
1582627095.6,286046996.2,N
1582627115.4,286046994.0,N
1582627135.2,286046993.0,N
1582627155.1,286046988.5,N
1582627156.0,286046988.5,N
1582627175.8,286046987.4,N
1582627195.7,286046985.7,Y
1582627215.5,286046998.0,P
1582627235.3,286046996.5,N
1582627255.2,286047000.7,N
1582627275.0,286047000.4,N
1582627275.9,286047000.4,N
1582627295.8,286047002.7,N
1582627315.6,286047002.5,N
1582627335.4,286047003.1,N
1582627355.3,286047003.5,N
1582627375.1,286047002.2,N
1582627395.9,286046998.3,N
1582627415.7,286046997.1,N
1582627435.5,286046993.3,N
1582627455.4,286046994.0,N
1582627475.2,286046993.4,N
1582627495.0,286046995.5,N
1582627496.0,286046995.5,N
1582627515.8,286046997.9,N
1582627535.6,286046997.5,N
1582627555.5,286046999.1,N
1582627575.3,286047001.6,N
1582627595.1,286047001.4,N
1582627615.9,286047006.0,N
1582627635.7,286047002.4,N
1582627655.6,286046999.9,N
1582627675.4,286046997.1,N
1582627695.2,286046997.3,N
1582627715.1,286046994.9,N
1582627716.0,286046994.9,N
1582627735.8,286046995.7,N
1582627755.6,286046996.3,N
1582627775.5,286046995.2,N
1582627795.3,286046995.1,N
1582627815.2,286046995.3,N
1582627835.9,286046995.0,N
1582627855.7,286046999.0,N
1582627875.6,286047001.1,N
1582627895.4,286047001.3,N
1582627915.2,286047000.2,N
1582627935.1,286046998.1,N
1582627936.0,286046998.1,N
1582627955.8,286046996.6,N
1582627975.7,286046997.7,N
1582627995.5,286046995.8,N
1582628015.3,286046995.0,N
1582628035.2,286046995.9,N
1582628055.0,286046994.2,N
1582628055.9,286046994.2,N
1582628075.8,286046994.1,N
1582628095.6,286046994.6,N
1582628115.4,286046995.6,N
1582628135.3,286046999.2,N
1582628155.1,286047000.9,N
1582628175.9,286046998.7,N
1582628195.7,286046997.0,N
1582628215.5,286046997.8,N
1582628235.4,286046993.7,N
1582628255.2,286046993.0,Y
1582628275.0,286046993.3,P
1582628276.0,286046993.3,P
1582628295.8,286046996.3,N
1582628315.6,286046995.4,N
1582628335.5,286046996.5,N
1582628355.3,286046999.8,N
1582628375.1,286047002.0,N
1582628395.9,286047002.7,N
